OpenBCM V1.13 (Linux)

Packet Radio Mailbox

DB0FHN

[JN59NK Nuernberg]

 Login: GUEST





  
WG3K   > KEPS     16.12.24 04:05l 352 Lines 16788 Bytes #999 (0) @ AMSAT
BID : ORB24351.1
Read: DJ6UX GUEST
Subj: 2Line Orbital Elements 24351.AMSAT
Path: DB0FHN<DB0BLO<DB0ERF<IZ3LSV<I0OJJ<EA2RCF<LU9DCE<VA3TOK<VE3CGR<KA1VSC<
      WG3K
Sent: 241216/0159Z 10959@WG3K.#SMD.MD.USA.NOAM LinBPQ6.0.24


QST de W1STR

AMSAT Orbital Elements for Amateur Satellites in TLE Format
From Orbital Analysis Office
New England Sci-Tech STEM Education Center
Natick, MA December 16, 2024
To all radio amateurs


These element sets describe the orbits of various satellites 
in use by the amateur radio community. For details see:
www.amsat.org/keplerian-elements-formats/

A daily update of element sets is available at:
www.amsat.org/tle/daily-bulletin.txt
or without bulletin text:
www.amsat.org/tle/dailytle.txt


AO-07
1 07530U 74089B   24349.82582472 -.00000036  00000-0  64353-4 0  9998
2 07530 101.9898 346.2405 0012392  99.3328  22.4994 12.53683759291672
UO-11
1 14781U 84021B   24350.32034785  .00003256  00000-0  35818-3 0  9996
2 14781  97.7305 314.5822 0007374 187.1160 172.9953 14.88253983196412
AO-27
1 22825U 93061C   24350.61526026  .00000299  00000-0  13156-3 0  9999
2 22825  98.7648  45.0705 0007337 267.9228  92.1114 14.30681376628823
FO-29
1 24278U 96046B   24350.48962892  .00000052  00000-0  85642-4 0  9996
2 24278  98.5883 261.4129 0350934  78.7302 285.3056 13.53225527399209
NOAA-15
1 25338U 98030A   24350.80644225  .00000367  00000-0  16902-3 0  9993
2 25338  98.5529  14.0249 0010812 148.8470 211.3354 14.26826488383333
GO-32
1 25397U 98043D   24350.36228476  .00000249  00000-0  12813-3 0  9995
2 25397  98.9483 320.0377 0001675  36.5822 323.5470 14.24211978373428
ISS
1 25544U 98067A   24350.85601535  .00015567  00000-0  27394-3 0  9999
2 25544  51.6382 135.3074 0007541 347.5122 167.1307 15.50621428486727
NO-44
1 26931U 01043C   24349.68962105  .00000361  00000-0  16664-3 0  9994
2 26931  67.0499 225.1299 0006710 260.5530  99.4813 14.31540186211789
SO-50
1 27607U 02058C   24349.71976459  .00002430  00000-0  33176-3 0  9999
2 27607  64.5555  26.0262 0035021  22.5872 337.6764 14.80505413183031
CO-55
1 27844U 03031E   24349.45619518  .00000749  00000-0  34717-3 0  9998
2 27844  98.6776 354.0374 0009438 348.2758  11.8200 14.23700393113466
CO-57
1 27848U 03031J   24349.95699013  .00000684  00000-0  32252-3 0  9995
2 27848  98.6804 354.6650 0009633   3.6287 356.4960 14.23079654113292
RS-22
1 27939U 03042A   24350.82291101  .00002615  00000-0  43061-3 0  9998
2 27939  98.3075 150.3282 0011217 201.6516 292.6450 14.71380767134974
NOAA-18
1 28654U 05018A   24350.79499399  .00000421  00000-0  24746-3 0  9995
2 28654  98.8608  66.1435 0013249 267.7416  92.2239 14.13453567  8917
CO-58
1 28895U 05043F   24350.33883096  .00003936  00000-0  66900-3 0  9993
2 28895  98.2240 126.9423 0015671 142.5933 217.6366 14.69635252 21279
CO-65
1 32785U 08021C   24350.16055304  .00008749  00000-0  68997-3 0  9994
2 32785  97.7705 314.7034 0013095  99.1952 261.0753 15.00917589902658
AAUSAT2
1 32788U 08021F   24349.18330858  .00060737  00000-0  16718-2 0  9995
2 32788  97.6041 332.2391 0001034  90.9716 269.1646 15.36950379905860
CO-66
1 32791U 08021J   24350.78169088  .00018287  00000-0  10857-2 0  9993
2 32791  97.7112 322.0498 0007363  61.6535 298.5437 15.11353503903955
RS-30
1 32953U 08025A   24350.79599822  .00000028  00000-0  13267-3 0  9994
2 32953  82.5031 336.5249 0020622  69.8514 290.4782 12.43155213751697
PRISM
1 33493U 09002B   24350.14640249  .00077789  00000-0  18970-2 0  9992
2 33493  98.1767  55.5787 0007665 337.8555  22.2357 15.40569638866681
NOAA-19
1 33591U 09005A   24350.77318803  .00000376  00000-0  22457-3 0  9995
2 33591  99.0243  48.2957 0014454 137.8859 222.3426 14.13230190817274
SRMSAT
1 37841U 11058D   24350.47936065  .00000609  00000-0  18767-3 0  9999
2 37841  19.9705 140.1124 0011709 288.4626 109.5265 14.11310716680426
RS-40
1 38735U 12041C   24350.17458776  .00000046  00000-0  26460-3 0  9994
2 38735  82.4770  57.0287 0017745 181.4065 178.6968 12.42622016561748
ZACUBE-1
1 39417U 13066B   24350.30847337  .00009477  00000-0  89036-3 0  9995
2 39417  97.7588 302.9198 0044895 281.1319  78.4855 14.93376848598571
Delfi-N3xt
1 39428U 13066N   24350.04158879  .00011590  00000-0  13044-2 0  9998
2 39428  97.8377 264.2110 0090071 219.5446 139.9175 14.83877295593032
GOMX-1
1 39430U 13066Q   24350.85376063  .00003955  00000-0  63352-3 0  9991
2 39430  97.7037 214.1935 0136730  34.6744 326.3281 14.66163178589647
LO-74
1 39440U 13066AA  24350.29971472  .00008904  00000-0  96044-3 0  9998
2 39440  97.8324 290.6441 0067232  41.8056 318.8267 14.86954506596413
AO-73
1 39444U 13066AE  24350.31872587  .00012701  00000-0  10722-2 0  9990
2 39444  97.7448 306.6741 0040868 257.2575 102.4077 14.97604488597756
DTUSAT-2
1 40030U 14033W   24349.77266362  .00011684  00000-0  85613-3 0  9995
2 40030  98.0343 307.8892 0008902 305.5447  54.4947 15.03677375569782
EO-80
1 40032U 14033Y   24349.93535460  .00010858  00000-0  79477-3 0  9996
2 40032  98.0232 307.9512 0006971 228.8676 131.1948 15.03749116570303
XW-2C
1 40906U 15049H   24350.78669046  .00142743  00000-0  11089-2 0  9990
2 40906  97.4536  15.1281 0004632  28.9249 331.2270 15.71335665512662
LILACSAT-2
1 40908U 15049K   24350.84035668  .00016174  00000-0  51266-3 0  9996
2 40908  97.5179   1.6042 0012873  71.5759 288.6881 15.32716737511256
IO-86
1 40931U 15052B   24337.09180034  .00002217  00000-0  20975-3 0  9992
2 40931   5.9986 232.5457 0013173 302.5393  57.3463 14.78392648496340
ChubuSat-2
1 41338U 16012B   24350.25660877  .00010240  00000-0  56991-3 0  9994
2 41338  31.0015 302.1373 0011036 258.7137 101.2262 15.12323572484993
ChubuSat-3
1 41339U 16012C   24350.55774691  .00008444  00000-0  48290-3 0  9994
2 41339  31.0079 300.1624 0011156 263.6987  96.2381 15.11288905485009
Horyu-4
1 41340U 16012D   24350.38206883  .00027800  00000-0  10465-2 0  9999
2 41340  30.9995 227.2094 0008879  20.8239 339.2764 15.25895552485751
Lapan A3
1 41603U 16040E   24350.83238481  .00006063  00000-0  22595-3 0  9997
2 41603  97.1380 356.5840 0011744 166.3898 193.7661 15.27731480470937
Pratham
1 41783U 16059A   24349.95356680  .00001624  00000-0  30410-3 0  9992
2 41783  97.8288   0.8350 0032343 164.2597 195.9621 14.65773716439019
CAS-2T
1 41847U 16066G   24350.77511121  .00001950  00000-0  28909-3 0  9998
2 41847  98.4427  60.6988 0349273 350.1240   9.3203 14.42547120425660
CAS-4B
1 42759U 17034B   24350.85959503  .00041021  00000-0  95270-3 0  9994
2 42759  43.0139 270.9566 0013992 155.2893 204.8637 15.41576263415304
CAS-4A
1 42761U 17034D   24350.83966849  .00040410  00000-0  92920-3 0  9996
2 42761  43.0177 269.2001 0015057 163.2208 196.9150 15.41864308415319
D-SAT
1 42794U 17036AF  24350.35264040  .00012177  00000-0  75359-3 0  9991
2 42794  97.4962 326.2707 0099112 251.3738 107.6707 15.05876764407966
TechnoSat
1 42829U 17042E   24350.55055857  .00006471  00000-0  53135-3 0  9991
2 42829  97.3844 161.8844 0012689 177.4549 182.6742 14.99447248404322
AO-91
1 43017U 17073E   24350.09867206  .00013964  00000-0  77160-3 0  9992
2 43017  97.5475 219.5994 0192882  45.9959 315.6981 14.99443694382711
S-Net D
1 43186U 18014G   24349.67083987  .00008403  00000-0  54147-3 0  9995
2 43186  97.5774 248.6125 0011408 106.4303 253.8180 15.08523144375670
S-Net B
1 43187U 18014H   24349.67430186  .00008435  00000-0  54364-3 0  9999
2 43187  97.5778 248.5778 0012167 102.8442 257.4147 15.08507803375672
S-Net A
1 43188U 18014J   24350.00340384  .00009323  00000-0  59996-3 0  9992
2 43188  97.5786 249.0317 0012144 102.4955 257.7633 15.08533057375726
S-Net C
1 43189U 18014K   24350.67133417  .00009421  00000-0  60606-3 0  9992
2 43189  97.5800 249.6742 0013838  94.2826 265.9984 15.08524619374372
Ten-Koh
1 43677U 18084G   24349.92228388  .00005604  00000-0  47122-3 0  9996
2 43677  98.0783 149.3484 0014509 136.1571 224.0805 14.98627471333762
PO-101
1 43678U 18084H   24350.73498841  .00003449  00000-0  30607-3 0  9996
2 43678  98.0861 154.4830 0009575 144.4971 215.6888 14.96854229334067
QO-100
1 43700U 18090A   24350.45793866  .00000153  00000-0  00000+0 0  9992
2 43700   0.0149 328.7763 0002539 333.0637 333.4006  1.00271142 22416
MinXSS-2
1 43758U 18099A   24350.42365807  .00021295  00000-0  10682-2 0  9991
2 43758  97.5306  50.7120 0014957  56.2446 304.0210 15.17249550330181
AO-95
1 43770U 18099N   24349.93418755  .00013649  00000-0  80085-3 0  9999
2 43770  97.5212  44.3646 0013458 102.9254 257.3480 15.11787552329814
RANGE-B
1 43772U 18099Q   24350.59742224  .00026007  00000-0  12170-2 0  9997
2 43772  97.5005  49.5538 0004234   9.7113 350.4203 15.19717515330172
RANGE-A
1 43773U 18099R   24349.59942847  .00006951  00000-0  47890-3 0  9993
2 43773  97.4781  37.2057 0013896  80.4521 279.8276 15.06077524329555
MOVE-II
1 43780U 18099Y   24350.15421237  .00056274  00000-0  17327-2 0  9994
2 43780  97.4959  53.1680 0005054  66.9481 293.2294 15.33430985330477
SNUSat 2
1 43782U 18099AA  24350.42702733  .00012864  00000-0  79214-3 0  9990
2 43782  97.4899  42.9191 0014175  46.3771 313.8632 15.10039052329875
SnugLite
1 43784U 18099AC  24350.39642098  .00014759  00000-0  86045-3 0  9990
2 43784  97.4706  42.2085 0005058  60.2943 299.8790 15.12065718329963
ITASat 1
1 43786U 18099AE  24348.08365608  .00008267  00000-0  52607-3 0  9998
2 43786  97.4875  40.5843 0017229 100.4985 259.8186 15.08915364329502
EAGLET 1
1 43790U 18099AJ  24349.69146990  .00006950  00000-0  47598-3 0  9992
2 43790  97.5061  42.5409 0014280  77.1762 283.1060 15.06296952329416
ESEO
1 43792U 18099AL  24350.39735638  .00003370  00000-0  26572-3 0  9998
2 43792  97.4828  38.6659 0009621  45.9486 314.2529 15.01369032329376
CSIM
1 43793U 18099AM  24350.65300491  .00054943  00000-0  17123-2 0  9996
2 43793  97.5113  55.5352 0008684  38.5185 321.6675 15.33028431330393
